Thedford, NE

6:47 AM CST on December 11, 2016 (GMT -0600)
Thedford

Weather History for KTIF - June, 2013

Change the Weather History Date:

Saturday, June 22, 2013

  Actual Average (KANW) Record (KANW)
Temperature  
Mean Temperature 66 °F -  
Max Temperature 75 °F 77 °F 96 °F (2002)
Min Temperature 57 °F 55 °F 42 °F (2001)
Cooling Degree Days 1    
Growing Degree Days 16 (Base 50)    
Moisture  
Dew Point 61 °F    
Average Humidity 78    
Maximum Humidity 91    
Minimum Humidity 68    
Precipitation  
Precipitation 1.01 in - - ()
Sea Level Pressure  
Sea Level Pressure 29.89 in    
Wind  
Wind Speed 12 mph (ENE)    
Max Wind Speed 44 mph    
Max Gust Speed 60 mph    
Visibility 10 miles    
Events Rain , Thunderstorm    
Averages and records for this station are not official NWS values.
T = Trace of Precipitation, MM = Missing Value Source: NWS Daily Summary

Daily Weather History Graph

Daily Weather History Graph

Search for Another Location

Airport or City:

Trip Planner

Search our weather history database for the weather conditions in past years. The results will help you decide how hot, cold, wet, or windy it might be!

Date:

Astronomy

Jun. 22, 2013 Rise Set
Actual Time 6:07 AM CDT 9:21 PM CDT
Civil Twilight 5:32 AM CDT 9:55 PM CDT
Nautical Twilight 4:48 AM CDT 10:40 PM CDT
Astronomical Twilight 3:54 AM CDT 11:34 PM CDT
Moon 8:37 PM CDT (6/22) 5:22 AM CDT (6/22)
Length of Visible Light 16h 23m
Length of Day
15h 14m
Waxing Gibbous, 99% of the Moon is Illuminated
Jun 22
Waxing Gibbous
Jun 23
Full
Jun 29
Last Quarter
Jul 8
New
Jul 15
First Quarter

Hourly Weather History & Observations

Time (CDT) Temp. Dew Point Humidity Pressure Visibility Wind Dir Wind Speed Gust Speed Precip Events Conditions
12:15 AM 67.3 °F 61.7 °F 82% 29.96 in 10.0 mi NE 18.4 mph 23.0 mph N/A Rain , Thunderstorm Light Thunderstorms and Rain
12:35 AM 66.2 °F 61.7 °F 85% 29.96 in 10.0 mi NNE 24.2 mph - 0.01 in Rain , Thunderstorm Light Thunderstorms and Rain
12:55 AM 65.5 °F 61.5 °F 87% 29.93 in 10.0 mi NNE 20.7 mph 31.1 mph 0.02 in Rain , Thunderstorm Light Thunderstorms and Rain
1:15 AM 64.9 °F 61.3 °F 88% 29.90 in 10.0 mi NNE 17.3 mph 26.5 mph 0.01 in Rain , Thunderstorm Light Thunderstorms and Rain
1:35 AM 64.8 °F 61.3 °F 89% 29.87 in 10.0 mi East 16.1 mph 28.8 mph 0.01 in Rain Light Rain
1:55 AM 64.8 °F 61.2 °F 88% 29.87 in 10.0 mi NE 11.5 mph 23.0 mph 0.01 in Rain Light Rain
2:15 AM 64.8 °F 61.3 °F 89% 29.94 in 10.0 mi NW 5.8 mph - 0.02 in Rain , Thunderstorm Heavy Thunderstorms and Rain
2:35 AM 64.6 °F 61.7 °F 90% 29.96 in 10.0 mi West 4.6 mph - 0.06 in Rain , Thunderstorm Light Thunderstorms and Rain
2:55 AM 64.6 °F 61.3 °F 89% 29.99 in 10.0 mi West 10.4 mph - 0.06 in Rain Light Rain
3:15 AM 63.9 °F 60.4 °F 89% 29.98 in 7.0 mi East 3.5 mph - 0.02 in Rain Rain
3:35 AM 63.7 °F 60.8 °F 90% 29.92 in 10.0 mi NE 12.7 mph - 0.05 in Rain Light Rain
3:55 AM 64.0 °F 61.0 °F 90% 29.89 in 10.0 mi South 12.7 mph - 0.05 in Rain Light Rain
4:15 AM 64.4 °F 60.8 °F 88% 29.87 in 10.0 mi SE 12.7 mph 17.3 mph N/A Rain Light Rain
4:35 AM 64.4 °F 60.4 °F 87% 29.89 in 10.0 mi SE 16.1 mph - N/A   Scattered Clouds
4:55 AM 63.9 °F 60.3 °F 88% 29.88 in 10.0 mi SE 18.4 mph - N/A   Scattered Clouds
5:15 AM 63.5 °F 59.4 °F 86% 29.85 in 10.0 mi SSE 16.1 mph - N/A   Scattered Clouds
5:35 AM 63.9 °F 58.3 °F 82% 29.84 in 10.0 mi SSE 16.1 mph - N/A Thunderstorm Scattered Clouds
5:55 AM 63.9 °F 58.1 °F 81% 29.85 in 10.0 mi SSE 12.7 mph - N/A   Scattered Clouds
6:15 AM 63.9 °F 57.6 °F 80% 29.85 in 10.0 mi SE 11.5 mph - N/A   Scattered Clouds
6:35 AM 63.7 °F 57.6 °F 80% 29.85 in 10.0 mi SE 13.8 mph - N/A   Clear
6:55 AM 63.7 °F 57.6 °F 80% 29.86 in 10.0 mi SE 12.7 mph - N/A   Clear
7:15 AM 64.8 °F 56.8 °F 75% 29.87 in 10.0 mi SSE 17.3 mph - N/A   Clear
7:35 AM 64.0 °F 57.2 °F 78% 29.89 in 10.0 mi ESE 8.1 mph - N/A   Clear
7:55 AM 63.5 °F 57.2 °F 80% 29.91 in 10.0 mi Calm Calm - N/A   Clear
8:15 AM 63.7 °F 57.2 °F 79% 29.91 in 10.0 mi SE 6.9 mph - N/A   Clear
8:35 AM 62.8 °F 57.9 °F 84% 29.94 in 10.0 mi Calm Calm - N/A   Clear
8:55 AM 63.7 °F 58.1 °F 82% 29.95 in 10.0 mi NNE 3.5 mph - N/A   Clear
9:15 AM 64.4 °F 58.3 °F 80% 29.96 in 10.0 mi North 3.5 mph - N/A   Clear
9:35 AM 65.3 °F 58.6 °F 79% 29.95 in 10.0 mi Calm Calm - N/A   Clear
9:55 AM 65.5 °F 59.0 °F 80% 29.94 in 10.0 mi NE 3.5 mph - N/A   Clear
10:15 AM 66.2 °F 58.8 °F 77% 29.95 in 10.0 mi North 3.5 mph - N/A   Clear
10:35 AM 67.1 °F 59.0 °F 75% 29.95 in 10.0 mi North 3.5 mph - N/A   Clear
10:55 AM 68.4 °F 58.6 °F 71% 29.95 in 10.0 mi Calm Calm - N/A   Scattered Clouds
11:15 AM 68.9 °F 58.3 °F 69% 29.94 in 10.0 mi NE 5.8 mph - N/A   Mostly Cloudy
11:35 AM 69.1 °F 59.2 °F 71% 29.95 in 10.0 mi ENE 4.6 mph - N/A   Overcast
11:55 AM 68.9 °F 59.0 °F 71% 29.95 in 10.0 mi NE 4.6 mph - N/A   Overcast
12:15 PM 69.3 °F 59.9 °F 72% 29.95 in 10.0 mi ENE 8.1 mph - N/A   Overcast
12:35 PM 70.0 °F 60.3 °F 71% 29.94 in 10.0 mi ENE 8.1 mph - N/A   Overcast
12:55 PM 70.3 °F 60.3 °F 70% 29.94 in 10.0 mi ENE 8.1 mph - N/A   Overcast
1:15 PM 69.8 °F 59.9 °F 71% 29.94 in 10.0 mi ENE 6.9 mph - N/A   Overcast
1:35 PM 70.3 °F 60.3 °F 70% 29.93 in 10.0 mi NE 9.2 mph - N/A   Overcast
1:55 PM 71.8 °F 61.2 °F 69% 29.92 in 10.0 mi ENE 9.2 mph - N/A   Overcast
2:15 PM 71.2 °F 61.0 °F 70% 29.92 in 10.0 mi East 8.1 mph - N/A   Overcast
2:35 PM 71.1 °F 61.2 °F 71% 29.91 in 10.0 mi East 9.2 mph - N/A   Overcast
2:55 PM 71.6 °F 61.7 °F 71% 29.91 in 10.0 mi East 9.2 mph - N/A   Overcast
3:15 PM 71.8 °F 61.9 °F 71% 29.90 in 10.0 mi East 8.1 mph - N/A   Overcast
3:35 PM 71.6 °F 62.1 °F 72% 29.90 in 10.0 mi East 9.2 mph - N/A   Overcast
3:55 PM 72.1 °F 62.1 °F 70% 29.89 in 10.0 mi East 10.4 mph - N/A   Overcast
4:15 PM 73.0 °F 62.8 °F 70% 29.87 in 10.0 mi ENE 8.1 mph - N/A   Overcast
4:35 PM 74.5 °F 63.5 °F 68% 29.85 in 10.0 mi NE 6.9 mph - N/A   Scattered Clouds
4:55 PM 75.2 °F 64.0 °F 68% 29.84 in 10.0 mi ENE 9.2 mph - N/A   Scattered Clouds
5:15 PM 74.5 °F 64.2 °F 70% 29.84 in 10.0 mi ENE 6.9 mph - N/A   Mostly Cloudy
5:35 PM 75.0 °F 64.6 °F 70% 29.83 in 10.0 mi East 10.4 mph - N/A   Overcast
5:55 PM 74.5 °F 64.6 °F 71% 29.82 in 10.0 mi East 11.5 mph - N/A   Overcast
6:15 PM 74.5 °F 64.9 °F 72% 29.80 in 10.0 mi ENE 10.4 mph - N/A   Overcast
6:35 PM 75.0 °F 65.3 °F 72% 29.79 in 10.0 mi ENE 11.5 mph - N/A   Mostly Cloudy
6:55 PM 75.2 °F 65.3 °F 71% 29.77 in 10.0 mi ENE 11.5 mph 17.3 mph N/A   Scattered Clouds
7:15 PM 75.4 °F 65.5 °F 71% 29.77 in 10.0 mi ENE 10.4 mph - N/A   Scattered Clouds
7:35 PM 74.5 °F 65.3 °F 73% 29.79 in 10.0 mi ENE 8.1 mph - N/A   Overcast
7:55 PM 73.9 °F 65.7 °F 75% 29.79 in 10.0 mi ENE 10.4 mph - N/A   Overcast
8:15 PM 73.4 °F 65.7 °F 77% 29.79 in 10.0 mi ENE 8.1 mph - N/A   Overcast
8:35 PM 73.4 °F 65.7 °F 77% 29.80 in 10.0 mi NE 4.6 mph - N/A   Overcast
8:55 PM 72.7 °F 65.5 °F 78% 29.79 in 10.0 mi NE 6.9 mph - N/A   Mostly Cloudy
9:15 PM 72.1 °F 65.5 °F 79% 29.79 in 10.0 mi NE 5.8 mph - N/A   Mostly Cloudy
9:35 PM 71.8 °F 66.0 °F 82% 29.79 in 10.0 mi North 9.2 mph - N/A   Mostly Cloudy
9:55 PM 71.6 °F 66.2 °F 83% 29.79 in 10.0 mi North 11.5 mph 17.3 mph N/A   Overcast
10:15 PM 71.6 °F 66.2 °F 83% 29.79 in 10.0 mi North 8.1 mph - N/A Thunderstorm Overcast
10:35 PM 71.6 °F 65.8 °F 82% 29.79 in 10.0 mi NNW 16.1 mph - N/A   Overcast
10:55 PM 71.1 °F 65.5 °F 82% 29.75 in 10.0 mi North 15.0 mph 19.6 mph N/A Rain Light Rain
11:15 PM 68.2 °F 61.9 °F 80% 29.96 in 4.0 mi SW 43.7 mph 59.8 mph 0.09 in Rain , Thunderstorm Heavy Thunderstorms and Rain
11:35 PM 57.9 °F 55.4 °F 91% 30.00 in 1.5 mi West 19.6 mph 27.6 mph 0.77 in Rain , Thunderstorm Heavy Thunderstorms and Rain
11:55 PM 59.0 °F 56.3 °F 91% 30.00 in 5.0 mi West 17.3 mph 23.0 mph 0.87 in Rain , Thunderstorm Thunderstorms and Rain